Vorticity
8 9 9 10 10 10 10 10 10 10 10 10 11 11 11 12 12 12 12 12 12 12 12 11 11 11 11 11 10 10 10 10 9 9 8 8 8 7 7 7 7 7 6 6 6 6 6 7 7 7 7 8 8 8 8 8 7 7 7 7 7 6 6 6 5 5 4 4 4
9 9 10 10 10 10 10 10 10 10 11 11 11 12 12 12 12 12 12 12 12 11 11 11 11 11 10 10 10 9 9 9 9 8 8 8 7 7 7 7 7 7 7 7 7 7 7 7 7 7 8 8 8 8 8 8 7 7 6 6 6 5 5 4 4 4 3 3 2
10 10 10 10 10 10 10 11 11 11 11 12 12 12 12 12 12 12 12 12 11 11 11 11 11 10 10 10 9 9 9 8 8 8 7 7 7 7 7 7 7 7 7 7 7 7 7 7 7 7 8 8 8 8 8 7 6 6 5 5 4 4 4 3 3 3 3 3 3
10 11 11 11 11 11 11 11 11 12 12 12 13 13 13 12 12 12 12 11 11 11 11 10 10 10 9 9 9 8 8 8 7 7 7 7 7 7 7 7 7 7 7 7 7 7 7 7 7 7 7 7 7 7 6 5 5 4 4 3 3 3 3 2 3 3 3 4 4
11 11 11 11 11 11 11 11 12 12 12 13 13 13 13 13 12 12 11 11 11 11 10 10 9 9 9 9 8 8 7 7 7 7 7 7 7 7 7 7 7 7 7 7 7 7 7 7 7 7 7 7 6 5 4 3 2 2 2 2 2 2 3 3 4 4 5 5 6
11 11 11 11 11 11 11 12 12 12 13 13 13 13 13 12 12 12 11 11 11 10 10 10 9 9 8 8 8 7 7 7 7 7 7 7 7 7 7 8 8 7 7 7 7 7 7 6 6 6 6 5 4 3 2 1 1 1 1 2 3 3 4 5 5 6 6 7 7
11 11 11 11 12 12 12 12 12 13 13 13 13 13 13 12 12 12 11 10 10 10 9 9 8 8 8 7 7 7 7 7 7 7 7 7 7 7 8 8 7 7 7 7 6 6 6 5 5 4 4 2 1 1 0 1 1 1 2 3 4 5 6 7 7 7 8 8 9
12 12 12 12 12 12 12 12 13 13 13 13 13 13 12 12 11 11 10 10 9 9 8 8 8 7 7 7 7 7 7 7 7 7 7 7 7 8 8 7 7 7 7 6 5 5 4 4 3 2 1 0 0 0 1 1 2 3 4 5 6 7 8 8 8 9 9 9 10
12 12 12 12 12 12 12 12 12 13 13 12 12 12 12 11 11 10 9 9 8 8 7 7 7 7 7 7 7 7 7 7 7 7 7 7 7 7 7 7 6 6 6 5 4 3 2 1 1 0 0 0 0 1 2 3 4 5 6 7 7 8 9 9 9 9 10 10 10
12 13 13 13 13 13 12 12 12 12 12 12 12 11 11 10 9 9 8 7 7 6 6 6 6 6 7 7 7 7 7 7 7 7 7 7 7 6 6 5 5 4 4 3 2 1 0 -0 -0 0 0 1 2 3 4 5 6 6 7 8 8 9 9 10 10 10 10 10 10
13 13 13 13 13 13 12 12 12 12 11 11 10 10 10 9 8 8 7 6 6 6 6 6 6 6 6 6 6 6 6 6 6 6 6 6 5 5 4 4 3 2 2 2 1 0 -0 -0 0 1 2 3 4 4 5 6 7 7 8 8 9 9 10 10 11 11 11 11 10
13 13 13 13 13 12 12 12 11 11 10 10 9 9 8 8 7 6 6 6 6 6 5 5 6 6 6 6 6 6 5 5 5 5 5 4 4 3 3 2 2 1 1 1 0 -0 -0 1 1 2 3 4 5 6 6 7 8 8 8 9 10 10 11 11 11 11 11 10 10
14 13 13 13 12 12 12 11 11 10 9 9 8 8 7 6 6 5 5 6 5 5 5 5 6 5 5 5 5 5 5 5 4 4 4 4 3 3 2 2 2 1 1 0 0 0 1 2 3 4 4 5 6 7 8 8 8 9 9 10 11 11 12 12 12 11 10 9 8
13 13 13 12 12 11 11 10 10 9 8 8 7 7 6 5 5 5 5 5 5 4 4 4 5 5 5 4 4 4 4 4 4 4 3 3 3 2 2 2 1 1 1 1 1 2 3 3 4 5 6 6 7 8 9 9 10 10 11 11 11 12 12 12 11 10 8 7 7
13 13 12 11 11 10 10 9 9 8 7 7 6 6 5 5 5 5 5 4 4 4 4 4 4 5 4 4 4 4 4 4 4 3 3 3 3 2 2 1 1 1 1 2 2 3 4 5 5 6 7 7 8 9 10 11 11 12 12 12 11 11 11 10 9 7 6 5 4
12 12 11 10 10 9 9 8 7 7 6 6 5 5 5 4 4 4 4 4 4 4 4 4 4 4 4 4 4 4 4 4 4 3 3 2 2 2 2 1 2 2 3 3 4 5 6 6 7 7 8 9 9 11 11 12 12 12 11 11 10 9 9 8 6 6 5 4 2
11 11 10 9 9 8 8 7 6 6 5 5 5 4 4 4 4 4 4 4 4 4 4 5 4 4 4 4 4 4 4 3 3 3 2 2 2 2 2 2 3 3 4 4 5 5 6 7 8 9 9 10 11 12 13 13 12 11 10 9 8 7 7 6 5 5 5 3 0
11 10 9 8 8 7 7 6 6 5 5 5 4 4 4 4 4 4 5 5 4 4 4 4 4 4 4 4 4 4 3 3 2 2 2 2 2 2 3 3 4 4 5 5 6 6 7 7 9 10 11 12 13 13 13 12 11 10 8 7 6 6 6 5 6 5 4 1 -0
10 9 8 8 7 6 6 5 5 5 5 5 5 5 5 5 5 5 5 5 5 5 4 4 4 4 4 4 3 3 3 2 2 2 2 3 3 3 4 4 4 5 5 6 7 7 8 9 10 11 12 13 14 14 13 12 10 8 7 5 5 5 6 6 7 5 2 -0 4
9 8 8 7 6 6 5 5 5 5 5 5 5 5 5 5 5 5 5 5 5 5 4 4 4 4 4 4 3 3 3 3 2 3 3 4 4 4 4 4 5 5 6 7 8 9 10 11 12 13 14 14 14 14 13 11 9 7 5 4 5 6 7 8 5 2 1 3 14
8 8 7 6 6 5 5 5 5 5 5 5 6 6 6 6 6 6 5 5 5 5 4 4 4 4 3 3 3 3 3 4 4 4 4 4 4 4 4 5 5 6 7 9 10 11 12 13 13 14 15 15 14 13 12 10 7 6 4 4 6 7 8 6 1 0 5 15 27
7 7 6 6 5 5 5 5 5 6 6 6 6 6 6 6 6 6 5 5 5 4 4 4 4 4 3 3 3 4 4 5 5 5 4 4 4 4 5 6 7 8 9 11 12 13 14 14 15 15 15 15 15 13 11 8 6 5 5 6 7 7 5 -0 -1 5 17 30 34
6 6 5 5 5 5 5 5 6 6 6 6 6 6 6 6 5 5 5 5 4 4 4 4 4 4 4 4 4 5 5 5 5 5 4 4 4 5 6 8 9 11 12 13 14 14 15 16 17 17 16 15 14 12 9 7 5 5 6 8 8 4 -0 -4 4 17 30 37 32
6 5 5 5 5 5 5 5 6 6 6 6 6 6 6 5 5 5 5 4 4 4 4 4 5 5 5 5 5 5 5 4 4 4 4 5 6 7 9 10 12 13 14 15 15 16 16 17 17 17 16 15 12 10 7 5 5 6 7 8 5 -1 -4 0 17 30 36 33 24
5 5 5 5 5 5 6 6 6 6 6 6 6 6 5 5 5 5 4 4 4 5 5 5 5 6 6 6 5 5 4 3 3 4 5 7 8 10 11 12 13 14 15 16 17 18 18 18 17 16 15 13 10 8 6 5 6 7 7 6 -1 -4 -1 13 29 36 34 24 18
5 5 5 5 5 6 6 6 6 6 6 6 6 5 5 5 5 5 5 5 5 5 6 6 6 6 6 5 4 4 4 4 4 5 7 8 10 11 13 13 14 15 17 18 18 19 18 17 16 14 12 10 8 7 6 6 6 7 5 1 -5 -3 9 27 36 34 26 17 17
5 5 5 5 6 6 6 6 6 6 5 5 5 5 5 5 5 5 5 5 6 6 6 6 6 5 5 4 4 4 4 5 6 8 9 10 11 12 13 14 15 16 18 18 19 18 17 15 13 11 9 8 7 6 6 6 6 5 2 -4 -5 5 21 37 35 27 20 17 24
5 5 5 5 6 6 5 5 5 5 5 5 5 5 5 6 6 6 6 6 6 6 6 6 5 5 4 4 4 5 5 6 8 9 10 11 11 12 13 14 16 17 18 18 18 17 15 13 11 9 7 6 6 6 6 6 5 3 -1 -7 0 16 32 39 29 22 19 24 35
5 5 5 5 5 5 5 5 5 5 5 5 6 6 6 6 6 6 6 6 5 5 5 5 5 4 4 4 5 6 7 8 9 9 9 10 11 12 13 15 16 18 18 18 16 14 12 10 8 7 6 5 6 6 6 5 4 0 -3 -5 10 26 37 34 24 22 26 36 46
4 5 5 5 5 5 5 5 5 5 6 6 6 6 6 6 6 6 6 5 6 5 5 4 4 4 5 5 5 6 8 9 9 9 9 9 10 11 13 15 17 18 18 17 15 12 10 8 6 5 5 5 6 6 5 5 2 -1 -3 2 22 34 36 27 23 28 37 48 51
4 5 5 5 5 5 5 6 6 6 6 6 6 6 6 6 6 6 6 5 5 5 5 5 5 5 5 5 6 7 8 9 9 9 9 8 8 10 12 15 18 18 17 15 12 10 7 6 5 5 5 5 6 5 5 4 1 -2 1 13 31 36 32 24 29 38 47 52 48
4 5 5 6 6 6 6 6 6 7 7 7 7 7 6 6 6 5 5 5 4 4 4 5 5 5 5 5 7 8 9 10 10 9 8 7 7 9 12 16 18 18 16 12 9 7 5 4 4 5 5 6 6 5 5 2 -1 -0 8 26 36 34 29 28 38 47 51 48 37
5 5 6 6 6 6 6 7 7 7 7 7 7 7 6 5 5 5 5 5 5 5 5 5 5 4 5 5 7 9 10 11 10 8 7 6 5 7 11 17 19 17 13 9 7 5 4 4 4 5 5 6 6 5 3 0 -1 5 18 36 36 32 30 38 47 50 47 37 24
6 6 6 6 6 7 7 7 7 7 7 7 7 6 5 5 4 4 5 5 5 5 4 4 4 4 5 6 8 9 11 11 10 8 6 4 4 6 12 19 19 15 10 6 5 4 3 4 4 5 6 7 6 4 2 -1 2 13 27 38 34 33 38 48 51 47 37 23 13
6 6 7 7 7 7 7 7 7 7 7 6 6 5 5 5 5 5 4 4 4 4 4 4 3 4 5 7 10 11 12 11 9 8 6 4 3 7 14 21 18 13 7 4 3 3 4 4 5 6 7 7 5 2 0 -0 8 20 32 36 34 38 46 52 47 37 24 12 6
7 7 7 7 7 7 7 7 7 6 6 5 4 4 4 5 5 5 4 4 4 3 3 2 3 4 6 9 12 13 12 11 9 7 5 3 3 9 16 22 16 9 5 3 3 4 5 5 7 8 8 6 3 1 1 3 14 26 35 36 38 45 50 50 39 26 14 6 4
7 7 7 7 7 7 7 6 5 5 4 4 3 4 4 4 5 5 5 4 3 3 2 2 3 5 8 11 13 13 12 10 8 7 5 2 4 12 19 21 12 7 3 3 4 5 7 8 9 9 7 4 2 1 3 8 21 31 37 38 45 50 50 42 28 16 8 4 6
7 7 7 7 7 7 6 5 4 3 3 2 2 3 4 5 5 5 5 5 4 2 2 2 4 7 10 13 14 12 10 8 7 6 4 2 8 16 20 17 9 5 4 5 6 8 9 11 10 8 5 2 1 2 6 13 27 35 39 43 50 51 45 32 18 9 5 6 8
7 7 7 7 7 6 5 4 3 2 1 1 1 3 4 6 6 6 6 5 4 2 1 2 5 8 11 14 13 11 9 8 8 6 4 4 12 18 19 12 7 5 5 8 10 11 12 12 9 6 3 1 2 5 10 20 31 38 43 49 53 48 36 20 11 6 6 8 11
7 7 7 7 6 5 4 3 2 1 0 -0 1 3 5 6 7 6 6 5 4 3 2 2 5 9 12 14 12 10 8 8 8 6 6 7 16 18 14 8 6 7 8 12 13 14 13 11 6 3 2 2 4 8 15 27 35 41 48 55 51 40 26 12 7 6 8 11 13
7 7 7 7 6 5 4 2 1 0 -0 0 1 3 5 6 6 6 6 5 4 3 3 3 6 9 13 14 11 9 8 9 8 7 8 12 17 15 10 6 7 10 12 15 16 14 11 7 4 2 2 3 6 12 21 32 39 46 52 55 45 30 16 7 6 7 10 12 14
Height
5718 5717 5715 5714 5712 5711 5709 5708 5706 5705 5703 5702 5701 5699 5698 5697 5696 5694 5693 5692 5691 5690 5689 5688 5687 5686 5685 5684 5683 5682 5681 5680 5679 5679 5678 5677 5676 5675 5674 5673 5672 5671 5670 5669 5668 5666 5665 5664 5663 5662 5661 5659 5658 5656 5655 5653 5651 5650 5648 5646 5645 5643 5641 5639 5637 5635 5634 5631 5629
5715 5713 5712 5710 5709 5707 5706 5704 5703 5701 5700 5699 5698 5696 5695 5694 5692 5691 5690 5689 5688 5687 5686 5685 5684 5683 5682 5681 5680 5679 5678 5677 5676 5675 5674 5674 5672 5671 5670 5669 5668 5667 5666 5664 5664 5662 5661 5660 5659 5658 5656 5655 5654 5652 5650 5648 5646 5645 5643 5641 5639 5638 5636 5634 5632 5630 5628 5625 5623
5711 5710 5708 5707 5705 5704 5703 5701 5700 5698 5697 5696 5694 5693 5692 5690 5689 5688 5687 5686 5685 5684 5683 5682 5681 5680 5679 5678 5677 5676 5675 5674 5673 5672 5671 5670 5669 5668 5667 5665 5664 5663 5662 5660 5659 5658 5657 5655 5654 5653 5652 5650 5649 5647 5645 5643 5641 5639 5638 5636 5634 5632 5630 5628 5626 5624 5621 5619 5616
5708 5706 5705 5703 5702 5700 5699 5698 5696 5695 5694 5693 5691 5690 5689 5688 5686 5685 5684 5683 5682 5681 5680 5679 5678 5677 5676 5675 5674 5673 5672 5671 5670 5669 5668 5667 5666 5664 5663 5662 5660 5659 5658 5656 5655 5653 5652 5651 5649 5648 5647 5645 5644 5642 5640 5638 5636 5634 5633 5631 5629 5626 5624 5622 5619 5617 5615 5612 5609
5704 5703 5701 5700 5698 5697 5695 5694 5693 5692 5690 5689 5688 5687 5686 5684 5683 5682 5681 5680 5679 5678 5677 5676 5675 5674 5673 5672 5671 5670 5669 5668 5667 5666 5664 5663 5662 5660 5659 5658 5656 5655 5653 5652 5650 5649 5647 5646 5644 5643 5641 5640 5638 5636 5634 5633 5631 5629 5627 5625 5623 5620 5618 5615 5613 5610 5608 5605 5603
5701 5699 5698 5696 5695 5693 5692 5691 5689 5689 5687 5686 5685 5684 5683 5682 5680 5679 5678 5677 5676 5675 5674 5673 5672 5671 5670 5669 5668 5667 5666 5664 5663 5662 5661 5659 5658 5657 5655 5654 5652 5650 5649 5647 5645 5644 5642 5641 5639 5638 5636 5634 5633 5631 5629 5627 5625 5623 5621 5619 5617 5614 5612 5609 5606 5603 5601 5598 5595
5697 5696 5694 5693 5691 5690 5689 5687 5686 5685 5684 5683 5682 5681 5680 5679 5678 5676 5675 5674 5673 5672 5671 5670 5669 5668 5667 5666 5665 5664 5662 5661 5659 5658 5657 5655 5654 5652 5651 5649 5647 5646 5644 5642 5640 5639 5637 5636 5634 5633 5631 5629 5628 5625 5624 5621 5619 5617 5615 5613 5610 5608 5605 5602 5599 5596 5593 5590 5588
5694 5692 5691 5689 5688 5686 5685 5684 5683 5682 5681 5680 5679 5678 5677 5675 5674 5674 5672 5671 5670 5669 5668 5667 5666 5665 5664 5663 5661 5660 5659 5657 5656 5654 5653 5651 5650 5648 5646 5645 5643 5641 5639 5638 5636 5634 5632 5631 5629 5628 5626 5624 5622 5620 5618 5615 5613 5610 5608 5606 5604 5600 5598 5594 5591 5588 5585 5582 5580
5690 5689 5687 5686 5684 5683 5682 5680 5679 5679 5678 5677 5676 5675 5674 5673 5671 5670 5669 5668 5667 5666 5665 5664 5663 5661 5660 5659 5658 5656 5655 5653 5652 5650 5649 5647 5645 5644 5642 5640 5639 5637 5635 5633 5631 5629 5627 5626 5624 5622 5620 5618 5616 5614 5611 5609 5607 5604 5601 5599 5597 5594 5591 5587 5584 5581 5578 5575 5572
5687 5685 5684 5682 5681 5679 5678 5677 5676 5675 5674 5673 5672 5671 5670 5669 5668 5667 5666 5665 5664 5663 5662 5660 5659 5658 5656 5655 5654 5652 5651 5649 5648 5646 5644 5643 5641 5639 5638 5636 5634 5632 5630 5628 5626 5624 5622 5620 5619 5617 5614 5612 5610 5608 5605 5603 5600 5598 5595 5592 5590 5587 5584 5581 5578 5574 5571 5568 5565
5683 5682 5680 5679 5677 5676 5675 5674 5673 5672 5671 5670 5669 5668 5667 5666 5665 5664 5663 5661 5660 5659 5658 5657 5655 5654 5652 5651 5649 5648 5646 5645 5643 5642 5640 5638 5637 5635 5633 5631 5629 5627 5625 5623 5621 5619 5617 5615 5613 5611 5609 5607 5604 5602 5599 5596 5594 5591 5589 5586 5583 5580 5578 5574 5571 5567 5564 5560 5557
5679 5678 5677 5675 5674 5673 5671 5670 5669 5668 5667 5666 5665 5664 5663 5662 5661 5660 5659 5658 5656 5655 5654 5652 5651 5649 5648 5647 5645 5644 5642 5640 5639 5637 5636 5634 5632 5630 5628 5626 5624 5622 5620 5618 5616 5614 5612 5610 5608 5606 5603 5601 5598 5596 5593 5590 5587 5585 5582 5579 5577 5574 5571 5567 5564 5560 5556 5553 5550
5676 5674 5673 5672 5670 5669 5668 5667 5666 5665 5664 5663 5662 5661 5659 5658 5657 5656 5655 5654 5652 5651 5650 5648 5647 5645 5644 5642 5641 5639 5638 5636 5634 5633 5631 5629 5627 5625 5623 5621 5619 5617 5615 5613 5611 5609 5606 5604 5602 5600 5598 5595 5592 5589 5587 5584 5581 5578 5575 5572 5569 5566 5563 5560 5556 5552 5549 5545 5542
5672 5671 5670 5668 5667 5666 5665 5664 5663 5661 5660 5659 5658 5657 5656 5654 5654 5652 5651 5650 5649 5647 5646 5644 5643 5641 5640 5638 5637 5635 5633 5632 5630 5628 5626 5624 5622 5620 5618 5616 5614 5612 5610 5608 5605 5603 5601 5599 5596 5594 5591 5589 5586 5583 5580 5577 5574 5571 5568 5565 5562 5559 5556 5552 5549 5545 5541 5538 5534
5669 5668 5666 5665 5664 5663 5662 5660 5659 5658 5657 5656 5654 5653 5652 5651 5650 5649 5647 5646 5644 5643 5642 5640 5639 5637 5636 5634 5632 5631 5629 5627 5625 5624 5621 5619 5618 5615 5614 5611 5609 5607 5605 5603 5600 5598 5595 5593 5590 5587 5585 5582 5579 5577 5574 5570 5567 5564 5561 5558 5555 5552 5548 5545 5541 5538 5534 5530 5527
5666 5664 5663 5662 5661 5659 5659 5657 5656 5655 5654 5652 5651 5650 5649 5647 5646 5645 5644 5642 5641 5639 5638 5637 5635 5633 5631 5630 5628 5626 5624 5623 5621 5619 5617 5615 5613 5611 5609 5606 5604 5602 5599 5597 5595 5592 5589 5587 5584 5581 5578 5575 5573 5570 5567 5564 5560 5557 5554 5551 5548 5544 5541 5538 5534 5530 5527 5523 5519
5662 5661 5660 5659 5657 5656 5655 5654 5653 5652 5650 5649 5648 5646 5645 5644 5642 5641 5640 5639 5637 5635 5634 5633 5631 5629 5628 5625 5624 5622 5620 5618 5616 5614 5613 5610 5608 5606 5604 5601 5599 5597 5594 5592 5589 5586 5583 5580 5577 5574 5572 5569 5566 5563 5560 5557 5554 5551 5548 5544 5541 5538 5534 5531 5527 5524 5519 5515 5511
5659 5658 5656 5655 5654 5653 5652 5650 5649 5648 5647 5646 5644 5643 5642 5640 5639 5638 5636 5635 5633 5632 5630 5629 5627 5625 5624 5622 5620 5618 5616 5614 5612 5610 5608 5606 5603 5601 5599 5596 5594 5591 5588 5586 5583 5580 5577 5574 5571 5568 5565 5562 5559 5556 5554 5551 5548 5544 5541 5538 5535 5532 5528 5524 5521 5516 5512 5508 5503
5655 5654 5653 5652 5651 5649 5648 5647 5646 5644 5643 5642 5641 5639 5638 5637 5635 5634 5632 5631 5629 5628 5626 5625 5623 5621 5619 5618 5616 5614 5612 5610 5608 5605 5603 5601 5599 5596 5594 5591 5588 5585 5583 5580 5577 5574 5571 5568 5565 5562 5559 5556 5553 5550 5547 5544 5541 5539 5535 5532 5529 5526 5522 5518 5514 5509 5504 5500 5495
5652 5651 5649 5648 5647 5646 5645 5644 5642 5641 5640 5639 5637 5636 5634 5633 5631 5630 5629 5627 5625 5624 5623 5621 5619 5617 5615 5614 5612 5609 5607 5605 5603 5601 5598 5596 5594 5591 5588 5585 5583 5580 5577 5574 5571 5567 5564 5561 5558 5555 5552 5549 5547 5544 5541 5539 5535 5533 5530 5527 5524 5520 5516 5512 5507 5502 5497 5492 5487
5648 5647 5646 5645 5644 5642 5641 5640 5639 5638 5636 5635 5633 5632 5630 5629 5628 5626 5625 5623 5621 5620 5618 5617 5615 5613 5611 5609 5607 5605 5603 5600 5599 5596 5594 5591 5588 5586 5583 5580 5577 5574 5571 5568 5564 5561 5558 5555 5552 5549 5546 5543 5541 5538 5535 5533 5530 5527 5524 5521 5518 5514 5510 5505 5500 5495 5490 5485 5479
5644 5643 5642 5641 5640 5639 5638 5636 5635 5634 5632 5631 5629 5628 5627 5625 5624 5622 5620 5619 5617 5616 5614 5612 5610 5609 5606 5604 5602 5600 5598 5596 5594 5591 5589 5586 5583 5580 5577 5574 5571 5568 5565 5561 5558 5555 5552 5549 5546 5543 5540 5538 5535 5532 5530 5527 5525 5522 5519 5516 5512 5508 5504 5499 5494 5488 5483 5477 5472
5641 5639 5639 5637 5636 5635 5634 5632 5631 5630 5629 5627 5626 5624 5623 5621 5619 5618 5616 5615 5613 5611 5609 5608 5606 5604 5602 5599 5598 5595 5593 5591 5588 5586 5583 5581 5578 5574 5571 5568 5565 5562 5559 5555 5552 5549 5545 5542 5539 5537 5534 5532 5529 5527 5525 5522 5519 5517 5514 5510 5506 5502 5497 5492 5487 5481 5475 5469 5464
5637 5636 5635 5634 5632 5631 5630 5629 5627 5626 5624 5623 5622 5620 5619 5617 5615 5614 5612 5610 5609 5607 5605 5603 5601 5599 5597 5595 5593 5590 5588 5586 5583 5580 5578 5575 5572 5569 5566 5563 5559 5556 5553 5549 5546 5543 5539 5536 5533 5530 5528 5525 5524 5521 5519 5517 5514 5511 5508 5504 5499 5495 5490 5485 5479 5473 5468 5462 5457
5633 5632 5631 5629 5628 5627 5626 5624 5623 5622 5620 5619 5618 5616 5614 5613 5611 5609 5608 5606 5604 5602 5600 5598 5596 5594 5592 5590 5588 5585 5583 5580 5578 5575 5572 5569 5566 5563 5560 5557 5554 5550 5547 5544 5540 5537 5533 5530 5527 5524 5521 5519 5517 5515 5514 5511 5509 5505 5501 5497 5493 5488 5483 5478 5472 5466 5461 5456 5451
5629 5628 5627 5626 5624 5623 5622 5620 5619 5618 5616 5615 5614 5612 5610 5609 5607 5605 5604 5602 5599 5598 5596 5594 5591 5589 5587 5585 5583 5580 5577 5575 5572 5570 5567 5564 5561 5558 5554 5551 5548 5544 5541 5538 5534 5531 5528 5524 5521 5518 5515 5513 5511 5509 5508 5505 5502 5499 5494 5490 5485 5480 5475 5470 5465 5459 5454 5449 5445
5625 5624 5623 5622 5620 5619 5618 5616 5615 5614 5612 5611 5609 5608 5606 5604 5602 5601 5599 5597 5595 5593 5591 5589 5587 5584 5582 5580 5577 5575 5572 5569 5566 5564 5561 5559 5556 5553 5549 5545 5542 5539 5535 5532 5529 5525 5522 5519 5516 5512 5509 5507 5505 5504 5502 5499 5496 5492 5488 5483 5478 5473 5468 5463 5458 5454 5449 5444 5439
5621 5620 5619 5618 5616 5615 5614 5612 5611 5609 5608 5606 5605 5603 5601 5599 5598 5596 5594 5592 5590 5588 5586 5584 5582 5579 5577 5574 5572 5569 5567 5564 5561 5558 5555 5553 5550 5547 5544 5540 5536 5533 5530 5526 5523 5520 5517 5514 5510 5507 5504 5501 5499 5497 5495 5493 5489 5485 5481 5477 5472 5466 5461 5456 5451 5447 5443 5439 5434
5617 5616 5615 5614 5612 5611 5609 5608 5606 5605 5603 5602 5600 5598 5597 5595 5593 5591 5589 5587 5585 5583 5581 5579 5576 5574 5572 5569 5566 5564 5561 5558 5555 5552 5549 5547 5544 5541 5538 5535 5531 5528 5524 5521 5518 5514 5511 5508 5505 5503 5499 5497 5494 5491 5489 5486 5483 5479 5475 5470 5465 5460 5454 5449 5445 5440 5436 5432 5429
5613 5612 5611 5609 5608 5606 5605 5604 5602 5600 5599 5597 5595 5594 5592 5590 5588 5586 5584 5583 5580 5578 5576 5574 5571 5569 5566 5564 5561 5558 5555 5552 5549 5546 5544 5541 5538 5535 5532 5529 5526 5522 5519 5515 5512 5509 5506 5503 5500 5498 5495 5492 5489 5485 5483 5480 5476 5473 5469 5464 5459 5453 5448 5444 5439 5435 5431 5427 5424
5609 5608 5606 5605 5604 5602 5601 5599 5598 5596 5594 5592 5591 5589 5587 5585 5584 5581 5579 5577 5575 5573 5570 5568 5566 5564 5561 5558 5555 5552 5549 5546 5543 5540 5538 5535 5533 5530 5527 5524 5520 5517 5514 5510 5507 5504 5501 5498 5495 5493 5490 5487 5484 5480 5477 5474 5470 5466 5462 5457 5452 5447 5442 5438 5433 5429 5425 5422 5419
5605 5604 5602 5601 5599 5598 5596 5594 5593 5591 5589 5588 5586 5584 5582 5580 5578 5576 5574 5572 5570 5568 5565 5563 5560 5558 5555 5552 5549 5546 5544 5541 5538 5535 5532 5529 5527 5524 5522 5519 5515 5512 5509 5505 5502 5499 5496 5493 5490 5488 5485 5482 5479 5475 5472 5469 5465 5461 5456 5451 5446 5441 5436 5432 5428 5424 5421 5418 5416
5600 5599 5598 5596 5594 5593 5591 5590 5588 5586 5585 5583 5581 5579 5578 5575 5573 5571 5569 5567 5565 5562 5560 5557 5555 5552 5549 5546 5544 5540 5538 5535 5532 5529 5527 5524 5521 5519 5516 5514 5510 5507 5503 5500 5497 5494 5491 5488 5485 5483 5480 5477 5474 5471 5467 5463 5459 5455 5450 5445 5440 5436 5431 5427 5423 5420 5417 5414 5412
5596 5594 5593 5591 5590 5588 5587 5585 5583 5582 5580 5578 5576 5574 5573 5570 5568 5566 5564 5561 5559 5557 5554 5552 5549 5546 5543 5540 5538 5535 5532 5529 5526 5524 5521 5519 5516 5514 5511 5509 5505 5502 5498 5494 5491 5489 5486 5483 5480 5478 5475 5472 5469 5466 5462 5458 5454 5449 5444 5440 5435 5430 5426 5422 5419 5416 5414 5412 5409
5591 5590 5588 5586 5585 5583 5582 5580 5579 5577 5575 5573 5571 5569 5567 5565 5563 5561 5559 5556 5554 5551 5549 5546 5543 5540 5537 5534 5532 5529 5527 5524 5521 5518 5516 5513 5511 5509 5506 5504 5500 5497 5493 5489 5486 5484 5481 5478 5475 5473 5470 5467 5464 5461 5457 5453 5449 5444 5439 5435 5430 5426 5422 5418 5415 5413 5411 5409 5406
5586 5585 5583 5581 5580 5579 5577 5575 5574 5572 5570 5568 5566 5564 5562 5560 5558 5555 5553 5551 5549 5546 5543 5540 5538 5534 5532 5529 5526 5524 5521 5519 5516 5513 5510 5508 5506 5504 5501 5499 5495 5492 5488 5484 5481 5478 5476 5474 5471 5468 5465 5462 5459 5456 5452 5448 5444 5439 5435 5430 5426 5422 5418 5415 5413 5410 5408 5406 5404
5582 5580 5578 5577 5575 5573 5572 5570 5569 5567 5565 5563 5561 5559 5557 5555 5552 5550 5548 5545 5543 5540 5538 5535 5532 5529 5527 5524 5521 5518 5515 5513 5511 5508 5505 5503 5501 5499 5496 5494 5490 5487 5484 5480 5477 5474 5471 5469 5466 5464 5460 5458 5454 5451 5447 5443 5439 5434 5430 5426 5422 5418 5415 5412 5410 5408 5406 5404 5401
5577 5575 5574 5572 5570 5568 5567 5565 5564 5562 5560 5558 5556 5554 5552 5549 5547 5544 5542 5540 5538 5535 5532 5529 5527 5524 5521 5519 5516 5513 5510 5508 5505 5503 5500 5498 5495 5493 5491 5489 5486 5482 5479 5475 5472 5469 5467 5464 5462 5459 5456 5453 5449 5446 5442 5438 5434 5430 5426 5422 5418 5415 5412 5410 5408 5406 5404 5402 5399
5572 5570 5569 5567 5565 5564 5562 5560 5558 5557 5555 5553 5550 5548 5546 5544 5541 5539 5536 5534 5532 5529 5527 5524 5522 5519 5516 5514 5511 5508 5506 5503 5500 5498 5496 5493 5491 5488 5486 5484 5481 5478 5474 5471 5468 5465 5463 5460 5457 5454 5451 5447 5444 5440 5437 5433 5429 5426 5422 5418 5415 5412 5410 5408 5406 5404 5402 5399 5397
5567 5565 5564 5562 5560 5559 5557 5555 5553 5551 5549 5547 5545 5543 5540 5538 5536 5533 5530 5528 5526 5524 5521 5519 5516 5514 5511 5509 5506 5504 5501 5499 5496 5493 5491 5489 5486 5483 5481 5478 5475 5473 5470 5467 5464 5461 5459 5456 5453 5450 5446 5442 5439 5435 5432 5429 5425 5421 5418 5414 5412 5409 5408 5406 5404 5402 5399 5397 5395
5562 5560 5558 5557 5555 5554 5552 5550 5548 5545 5544 5542 5539 5537 5535 5533 5530 5528 5525 5523 5520 5518 5516 5514 5511 5509 5506 5503 5501 5499 5497 5494 5491 5489 5486 5484 5481 5478 5476 5473 5470 5468 5465 5463 5460 5457 5454 5452 5449 5445 5441 5437 5434 5430 5427 5424 5420 5417 5414 5411 5409 5407 5405 5404 5402 5400 5397 5395 5392